TimeEDT,TemperatureF,Dew PointF,Humidity,Sea Level PressureIn,VisibilityMPH,Wind Direction,Wind SpeedMPH,Gust SpeedMPH,PrecipitationIn,Events,Conditions,WindDirDegrees,DateUTC
12:53 AM,73.9,70.0,87,29.77,8.0,Calm,Calm,-,N/A,,Mostly Cloudy,0,2013-06-26 04:53:00
1:53 AM,73.0,70.0,90,29.76,7.0,Calm,Calm,-,N/A,,Overcast,0,2013-06-26 05:53:00
2:53 AM,72.0,70.0,93,29.75,6.0,Calm,Calm,-,N/A,,Clear,0,2013-06-26 06:53:00
3:53 AM,75.0,68.0,79,29.75,9.0,WSW,5.8,-,N/A,,Clear,240,2013-06-26 07:53:00
4:53 AM,73.9,68.0,82,29.77,8.0,WSW,3.5,-,N/A,,Clear,240,2013-06-26 08:53:00
5:53 AM,73.9,68.0,82,29.78,7.0,Calm,Calm,-,N/A,,Clear,0,2013-06-26 09:53:00
6:53 AM,75.0,68.0,79,29.79,8.0,SW,6.9,-,N/A,,Clear,220,2013-06-26 10:53:00
7:53 AM,75.9,66.9,74,29.81,10.0,SW,10.4,-,N/A,,Clear,220,2013-06-26 11:53:00
8:53 AM,77.0,66.9,71,29.81,10.0,WSW,13.8,20.7,N/A,,Clear,240,2013-06-26 12:53:00
9:53 AM,77.0,66.9,71,29.80,10.0,WSW,8.1,-,N/A,,Clear,250,2013-06-26 13:53:00
10:53 AM,81.0,66.9,62,29.80,10.0,WSW,9.2,-,N/A,,Partly Cloudy,250,2013-06-26 14:53:00
11:53 AM,81.0,66.9,62,29.80,10.0,SSW,5.8,-,N/A,,Scattered Clouds,200,2013-06-26 15:53:00
12:53 PM,79.0,68.0,69,29.81,10.0,Variable,6.9,-,N/A,,Partly Cloudy,0,2013-06-26 16:53:00
1:53 PM,78.1,69.1,74,29.81,10.0,Calm,Calm,-,N/A,,Partly Cloudy,0,2013-06-26 17:53:00
2:53 PM,79.0,69.1,72,29.80,10.0,SSW,8.1,-,N/A,,Clear,210,2013-06-26 18:53:00
3:53 PM,80.1,69.1,69,29.79,10.0,SSW,9.2,-,N/A,,Clear,210,2013-06-26 19:53:00
4:53 PM,79.0,69.1,72,29.78,10.0,Calm,Calm,-,N/A,,Clear,0,2013-06-26 20:53:00
5:53 PM,80.1,70.0,71,29.78,10.0,SW,3.5,-,0.00,,Partly Cloudy,220,2013-06-26 21:53:00
6:53 PM,77.0,71.1,82,29.80,4.0,SW,4.6,-,0.01,Rain,Light Rain,220,2013-06-26 22:53:00
7:10 PM,75.2,71.6,89,29.81,2.5,SSW,6.9,-,0.02,Rain,Light Rain,210,2013-06-26 23:10:00
7:32 PM,73.4,71.6,94,29.80,4.0,SSW,8.1,-,0.07,Rain,Light Rain,200,2013-06-26 23:32:00
7:53 PM,73.0,70.0,90,29.78,10.0,Calm,Calm,-,0.07,,Overcast,0,2013-06-26 23:53:00
8:53 PM,72.0,70.0,93,29.78,6.0,Calm,Calm,-,N/A,,Scattered Clouds,0,2013-06-27 00:53:00
9:53 PM,70.0,69.1,97,29.80,5.0,Calm,Calm,-,N/A,,Clear,0,2013-06-27 01:53:00
10:37 PM,69.8,68.0,94,29.82,1.8,Calm,Calm,-,N/A,,Partly Cloudy,0,2013-06-27 02:37:00
10:50 PM,69.8,69.8,100,29.82,3.0,Calm,Calm,-,N/A,,Clear,0,2013-06-27 02:50:00
10:53 PM,70.0,69.1,97,29.82,3.0,Calm,Calm,-,N/A,,Clear,0,2013-06-27 02:53:00
11:53 PM,68.0,66.9,96,29.81,2.5,NNE,4.6,-,N/A,,Partly Cloudy,30,2013-06-27 03:53:00
11:58 PM,68.0,66.2,94,29.81,1.0,Calm,Calm,-,N/A,,Mist,0,2013-06-27 03:58:00